Location: An Namas?
(25.2522°N, 32.5702°E)
Time: 15:18:26
(UTC+00:00)

Daily predictions for brighter satellites

Satellite Brightness Start Highest point End
(mag) Time Altitude Azimuth Time Altitude Azimuth Time Altitude Azimuth
NOSS 3-4 (A) 4.5 16:55:07 10° NNW 17:02:17 47° ENE 17:10:08 10° SE
NOSS 3-4 (C) 4.5 16:55:14 10° NNW 17:02:22 46° ENE 17:10:10 10° SE
Cosmos 614 Rocket 4.0 16:57:34 10° NNW 17:02:47 81° ENE 17:07:56 10° SSE
SL-14 R/B 3.4 17:03:01 10° S 17:06:52 79° W 17:10:46 10° N
Cosmos 1378 Rocket 4.4 17:03:03 10° SSW 17:07:22 56° W 17:11:41 10° N
ATLAS 2A CENTAUR R/B 4.5 16:59:29 10° W 17:09:04 86° SSW 17:32:35 10° ESE
SWIFT 4.3 17:08:06 10° S 17:10:00 13° SSE 17:11:53 10° SE
Delta 202 4.3 17:05:37 10° WSW 17:10:38 36° S 17:15:31 10° ESE
USA 281 4.3 17:05:40 10° S 17:11:53 45° WSW 17:18:08 10° NW
CSL-04 Rocket 4.4 17:06:56 10° SE 17:11:55 36° ENE 17:16:56 10° N
deb Chang Zheng 4 4.3 17:08:16 10° SE 17:12:00 32° ENE 17:15:45 10° N
Cosmos 2369 Rocket 2.8 17:13:49 10° NNW 17:19:21 59° WSW 17:24:53 10° S
USA 186 2.0 17:21:33 10° SSE 17:24:16 42° ENE 17:27:07 10° N
GENESIS II 4.5 17:20:45 10° NNW 17:24:43 55° ENE 17:28:25 11° SE
Cosmos 1025 Rocket 3.8 17:20:59 10° SSE 17:24:45 32° E 17:28:33 10° NNE
Cosmos 724 4.4 17:19:35 10° SSW 17:25:25 83° WNW 17:31:14 10° NNE
GPS 2-17 Rocket1 3.5 17:23:01 10° WSW 17:27:05 40° S 17:30:35 14° ESE
Cosmos 1833 Rocket 4.0 17:24:25 10° SE 17:28:15 19° E 17:32:04 10° ENE
CZ-4C R/B 4.3 17:25:27 10° N 17:28:41 43° WNW 17:31:57 10° SSW
Cosmos 1238 Rocket 4.1 17:23:05 10° N 17:29:22 85° W 17:35:49 10° S
Cosmos 1452 Rocket 4.5 17:26:44 10° SSE 17:31:02 26° E 17:35:20 10° NE
Cosmos 1371 Rocket 4.4 17:26:08 10° SSW 17:31:17 67° WNW 17:36:31 10° N
Cosmos 1745 Rocket 4.2 17:27:16 10° N 17:33:14 50° E 17:39:15 10° SSE
CZ-4 R/B 3.0 17:31:02 10° SSW 17:34:52 36° W 17:38:42 10° NNW
Meteor 2-5 Rocket 3.7 17:33:59 10° S 17:39:24 62° E 17:44:51 10° NNE
COBE Rocket 3.7 17:35:02 10° SSE 17:39:40 81° ENE 17:44:17 10° N
Atlas Centaur 2 2.1 17:34:00 10° WNW 17:40:16 75° SSW 17:43:56 18° ESE
Yuri Rocket 3.3 17:40:33 10° WNW 17:44:44 58° N 17:48:20 13° E
Resurs 01 Rocket 3.1 17:46:10 17° ESE 17:47:48 21° ENE 17:51:08 10° NNE
IRS-1C Rocket 4.1 17:43:17 10° SSE 17:48:33 86° ENE 17:53:49 10° NNW
JB-3 4.3 17:45:45 10° N 17:49:34 77° WNW 17:53:21 10° SSW
Cosmos 1300 2.7 17:48:15 10° N 17:52:02 81° W 17:55:29 12° S
Mugunghwa Rocket 4.5 17:46:39 10° WSW 17:54:11 65° SSE 18:02:31 10° E
Cosmos 1455 Rocket 3.5 17:51:52 10° NNE 17:55:55 40° E 17:57:45 26° SE
Cosmos 1140 Rocket 3.4 17:51:24 10° NNW 17:56:34 85° ENE 18:00:31 17° SSE
Meteor 1-24 Rocket 3.5 17:51:37 10° S 17:56:54 79° E 18:02:16 10° N
Cosmos 1023 Rocket 4.4 17:51:47 10° NNW 17:56:56 90° ENE 18:00:56 17° SSE
Cosmos 407 Rocket 3.4 17:52:50 10° NNW 17:57:58 80° ENE 18:01:38 19° SSE
Okean O Rocket 4.4 17:57:08 10° SW 17:59:20 14° W 18:01:32 10° WNW
Okean 1 Rocket 4.1 17:55:44 10° NNW 17:59:57 45° W 18:04:08 10° SSW
Cosmos 1190 Rocket 4.3 17:54:59 10° N 18:00:07 51° ENE 18:02:53 26° SE
KM-V1 4.5 17:57:26 10° W 18:00:10 37° NNW 18:01:15 21° NE
Lacrosse 5 3.7 17:57:55 10° N 18:01:27 18° NE 18:03:40 14° ENE
Cosmos 2082 Rocket 4.2 18:03:53 11° ENE 18:03:53 11° ENE 18:04:32 10° ENE
Okean-O 3.2 17:58:17 10° S 18:02:36 55° W 18:06:56 10° NNW
ATLAS 2A CENTAUR R/B 1.1 18:01:10 10° WNW 18:03:03 56° NNW 18:03:03 56° NNW
CZ-4B R/B 1.6 18:00:44 10° NNE 18:03:08 38° E 18:03:08 38° E
IGS 5A 3.5 18:01:13 17° S 18:04:18 80° WSW 18:08:26 10° NNW
H-2A R/B 2.4 18:05:28 20° S 18:08:00 68° WSW 18:11:48 10° NNW
ASTRO E2 2.5 18:05:41 10° WSW 18:09:35 74° SSE 18:11:19 31° E
Cosmos 1953 4.5 18:07:08 10° NW 18:10:23 25° W 18:13:39 10° SSW
USA 267 4.0 18:06:08 10° ENE 18:18:10 - S 18:11:07 26° ESE
GOES 2 Rocket 3.2 18:09:34 10° WSW 18:14:01 88° NNW 18:17:54 19° ENE
Cosmos 1536 Rocket 4.0 18:14:10 36° ESE 18:14:28 37° E 18:18:27 10° NNE
Spot 2 4.4 18:11:55 20° S 18:15:01 72° WSW 18:19:51 10° NNW
Meteor 2-10 Rocket 3.9 18:11:36 10° NNW 18:16:30 58° W 18:20:49 14° S
DELTA 2 R/B (1) 3.9 18:11:12 10° WNW 18:16:40 57° SW 18:19:03 32° SSE
Cosmos 2315 Rocket 4.3 18:10:42 10° SSW 18:17:01 71° W 18:23:19 10° N
MetOp-A 3.9 18:15:20 22° S 18:17:58 64° W 18:22:28 10° NNW
Cosmos 1271 Rocket 3.8 18:15:39 10° NNE 18:18:44 29° ENE 18:18:44 29° ENE
Cosmos 1709 Rocket 3.9 18:15:29 10° N 18:21:45 81° E 18:25:42 25° S
H-2A R/B 3.0 18:19:28 10° N 18:23:47 49° WNW 18:28:07 10° SSW
Ariane Rocket 3.4 18:26:13 39° ESE 18:27:10 43° ENE 18:31:58 10° N
Cosmos 1455 3.0 18:25:12 10° NNE 18:28:12 37° ENE 18:28:12 37° ENE
Cosmos 676 Rocket 4.1 18:23:41 10° N 18:28:51 56° ENE 18:29:59 46° ESE
GEOS 3 Rocket 4.2 18:36:11 36° E 18:37:06 39° NE 18:41:49 10° NNW
Tiangong 3.4 18:35:32 10° NNW 18:37:34 18° NNE 18:37:34 18° NNE
MetOp-B 4.2 18:42:36 52° ESE 18:43:13 55° ENE 18:48:26 10° N
Cosmos 1954 Rocket 3.9 18:38:20 10° NNW 18:43:35 90° SW 18:44:37 58° SSE
Cosmos 1656 4.3 18:41:36 10° N 18:46:41 37° ENE 18:46:48 37° ENE
ATLAS 2AS CENTAUR R/B 2.7 18:40:13 10° NNW 18:46:58 62° ENE 18:48:29 49° ESE
Cosmos 1544 Rocket 3.4 18:44:07 10° N 18:48:23 87° N 18:48:23 87° N
Lacrosse 5 rocket 1.6 18:46:45 10° NW 18:50:20 65° W 18:50:20 65° W
Skynet4D Del rocket 3.9 18:45:23 10° W 18:51:01 57° SSW 18:51:43 54° S
Cosmos 1331 Rocket 4.0 18:49:36 36° SSW 18:51:49 80° WNW 18:57:07 10° NNE
SPOT 1/Viking Rocket 3.6 18:53:19 56° SSW 18:54:19 73° WSW 18:59:28 10° NNW
COSMOS 2406 3.1 18:54:08 60° S 18:55:08 76° ESE 19:00:54 10° NNE
Cosmos 1697 Rocket 4.3 18:54:18 10° NNE 18:57:48 20° NE 18:57:48 20° NE
Aurora 2 Rocket 4.1 18:57:26 10° W 19:07:39 85° S 19:10:32 46° E
SPOT 5 4.2 19:10:32 27° NNE 19:10:32 27° NNE 19:12:52 10° N
Cosmos 1833 Rocket 4.0 19:06:38 10° SW 19:11:46 37° WNW 19:16:57 10° N
Terra 3.5 19:17:34 24° NNE 19:17:34 24° NNE 19:19:56 10° N
ERS-1 Rocket 4.0 19:22:35 38° NNE 19:22:35 38° NNE 19:25:56 10° N
Milstar 3 4.2 19:11:41 10° WSW 19:21:48 83° SSE 19:42:47 10° ENE
Resurs 01 Rocket 3.6 19:23:44 22° WSW 19:24:04 22° W 19:27:32 10° NW
RESURS DK-1 4.4 19:23:43 10° N 19:25:28 24° N 19:25:28 24° N
Atlas Centaur 2 4.1 19:25:05 10° WSW 19:26:28 14° WSW 19:26:28 14° WSW
Cosmos 2184 Rocket 4.1 19:31:04 10° N 19:37:07 70° W 19:37:07 70° W
Lacrosse 5 3.2 19:39:40 10° NW 19:42:52 35° WNW 19:42:52 35° WNW
Cosmos 2082 Rocket 2.8 19:45:37 52° WNW 19:45:37 52° WNW 19:50:54 10° N
USA 267 3.7 19:48:06 10° NNE 19:54:29 58° NW 19:58:11 26° WSW
Cosmos 1980 Rocket 4.0 20:36:34 10° NNW 20:39:07 28° NNW 20:39:07 28° NNW
Cosmos 2219 Rocket 4.4 22:25:55 10° N 22:28:08 20° NNE 22:28:08 20° NNE
CENTAUR R/B 4.1 23:09:34 25° NNW 23:09:34 25° NNW 23:12:55 10° N
Cosmos 2333 Rocket 4.4 23:11:27 10° NNW 23:12:51 18° NNW 23:12:51 18° NNW
Cosmos 2227 Rocket 3.6 23:29:43 34° NNE 23:29:43 34° NNE 23:32:53 10° NNE
Resurs 1-4 Rocket 3.8 23:35:29 10° N 23:38:01 28° N 23:38:01 28° N
SL-16 R/B 2.9 23:49:37 60° NE 23:49:37 60° NE 23:55:10 10° N
CZ-2D R/B 3.8 23:44:14 10° N 23:46:39 26° NNW 23:46:39 26° NNW
COSMOS 2455 4.5 23:47:03 10° N 23:52:14 30° ENE 23:55:51 17° ESE
